IN3XSV-15 Weather Reports


time (UTC)temp
F
wind
direction
speed
knots
gust
knots
rain 1hr
in
rain 24hr
in
rain mn
in
humidity
%
barometer
mb
20260507082114 44 180 0.0 0.0 0.00 0.00 0.00 85 852.4
20260507081614 44 180 0.0 0.0 0.00 0.00 0.00 85 852.4
20260507081114 46 0 0.0 0.0 0.00 0.00 0.00 84 852.2
20260507080614 47 180 0.0 0.0 0.00 0.00 0.00 83 852.3
20260507080114 48 180 0.0 0.0 0.00 0.00 0.00 84 852.2
20260507075614 48 180 0.0 0.0 0.00 0.00 0.00 85 852.3
20260507075114 45 112 0.0 1.7 0.00 0.00 0.00 86 852.0
20260507074614 44 180 0.0 0.9 0.00 0.00 0.00 86 852.0
20260507074114 43 180 0.0 1.7 0.00 0.00 0.00 86 852.0
20260507073614 43 180 0.0 1.7 0.00 0.00 0.00 86 852.0
20260507073114 42 22 0.0 0.0 0.00 0.00 0.00 85 851.9
20260507072614 42 180 0.0 0.0 0.00 0.00 0.00 84 851.9
20260507072114 42 157 0.0 0.0 0.00 0.00 0.00 84 851.9
20260507071614 42 180 0.0 0.0 0.00 0.00 0.00 83 851.9
20260507071114 43 180 0.0 0.0 0.00 0.00 0.00 82 851.8
20260507070614 43 202 0.0 0.0 0.00 0.00 0.00 82 851.8
20260507070114 44 202 0.0 0.0 0.00 0.00 0.00 82 851.7
20260507065614 44 202 0.0 0.0 0.00 0.00 0.00 80 851.7
20260507065114 45 225 0.0 0.0 0.00 0.00 0.00 79 851.6
20260507064614 46 225 0.0 0.0 0.00 0.00 0.00 79 851.6
20260507064114 47 225 0.0 0.0 0.00 0.00 0.00 79 851.6
20260507063614 47 225 0.0 0.0 0.00 0.00 0.00 80 851.6
20260507063114 47 225 0.0 0.0 0.00 0.00 0.00 80 851.6
20260507062614 47 225 0.0 0.0 0.00 0.00 0.00 80 851.6
20260507062114 47 225 0.0 0.0 0.00 0.00 0.00 80 851.5
20260507061614 46 315 0.0 0.0 0.00 0.00 0.00 81 851.6
20260507061114 46 270 0.0 0.0 0.00 0.00 0.00 81 851.5
20260507060614 45 270 0.0 0.0 0.00 0.00 0.00 81 851.5
20260507060114 44 315 0.0 0.0 0.00 0.00 0.00 81 851.4
20260507055614 44 315 0.0 0.0 0.00 0.00 0.00 80 851.3
20260507055114 44 315 0.0 0.0 0.00 0.00 0.00 81 851.3
20260507054614 44 337 0.0 0.0 0.00 0.00 0.00 81 851.2
20260507054114 45 337 0.0 0.0 0.00 0.00 0.00 81 851.3
20260507053614 45 0 0.0 0.0 0.00 0.00 0.00 81 851.3
20260507053114 47 315 0.0 0.0 0.00 0.00 0.00 80 851.3
20260507052614 48 315 0.0 0.0 0.00 0.00 0.00 79 851.3
20260507052114 50 315 0.0 0.0 0.00 0.00 0.00 80 851.1
20260507051614 50 315 0.0 0.0 0.00 0.00 0.00 81 851.1
20260507051114 49 270 0.0 0.0 0.00 0.00 0.00 84 851.0
20260507050614 47 337 0.0 0.0 0.00 0.00 0.00 86 851.0
20260507050114 46 337 0.0 0.0 0.00 0.00 0.00 88 850.9
20260507045614 42 315 0.0 0.0 0.00 0.00 0.00 91 850.8
20260507045114 39 315 0.0 0.0 0.00 0.00 0.00 91 850.9
20260507044614 38 337 0.0 0.0 0.00 0.00 0.00 91 850.8
20260507044114 37 337 0.0 0.0 0.00 0.00 0.00 91 850.8
20260507043614 37 337 0.0 0.0 0.00 0.00 0.00 91 850.7
20260507043114 37 337 0.0 0.0 0.00 0.00 0.00 92 850.7
20260507042614 36 337 0.0 0.0 0.00 0.00 0.00 92 850.7
20260507042114 35 337 0.0 0.0 0.00 0.00 0.00 92 850.7
20260507041614 35 337 0.0 0.0 0.00 0.00 0.00 92 850.6
20260507041114 34 337 0.0 0.0 0.00 0.00 0.00 92 850.6
20260507040614 34 315 0.0 0.0 0.00 0.00 0.00 91 850.6
20260507040114 34 315 0.0 0.0 0.00 0.00 0.00 91 850.7
20260507035614 34 337 0.0 0.0 0.00 0.00 0.00 91 850.7
20260507035114 34 337 0.0 0.0 0.00 0.00 0.00 91 850.7
20260507034614 34 270 0.0 0.0 0.00 0.00 0.00 90 850.6
20260507034114 34 202 0.0 0.0 0.00 0.00 0.00 90 850.6
20260507033614 34 202 0.0 0.0 0.00 0.00 0.00 90 850.6
20260507033114 34 270 0.0 0.0 0.00 0.00 0.00 90 850.7
20260507032614 34 315 0.0 0.0 0.00 0.00 0.00 90 850.7
20260507032114 34 315 0.0 0.0 0.00 0.00 0.00 90 850.6
20260507031614 34 315 0.0 0.0 0.00 0.00 0.00 89 850.6
20260507031114 34 292 0.0 0.0 0.00 0.00 0.00 89 850.6
20260507030614 34 337 0.0 0.0 0.00 0.00 0.00 88 850.7
20260507030114 34 337 0.0 0.0 0.00 0.00 0.00 88 850.7
20260507025614 34 315 0.0 0.0 0.00 0.00 0.00 87 850.7
20260507025114 34 315 0.0 0.0 0.00 0.00 0.00 87 850.6
20260507024614 35 315 0.0 0.0 0.00 0.00 0.00 86 850.6
20260507024114 35 270 0.0 0.0 0.00 0.00 0.00 86 850.7
20260507023614 35 292 0.0 0.0 0.00 0.00 0.00 86 850.7
20260507023114 35 247 0.0 0.0 0.00 0.00 0.00 86 850.7
20260507022614 35 292 0.0 0.0 0.00 0.00 0.00 86 850.7
20260507022114 35 292 0.0 0.0 0.00 0.00 0.00 86 850.6
20260507021614 35 292 0.0 0.0 0.00 0.00 0.00 86 850.7
20260507021115 35 270 0.0 0.0 0.00 0.00 0.00 86 850.8
20260507020614 35 270 0.0 0.0 0.00 0.00 0.00 86 850.9
20260507020114 35 270 0.0 0.0 0.00 0.00 0.00 86 850.8
20260507015614 35 292 0.0 0.0 0.00 0.00 0.00 87 850.8
20260507015114 34 292 0.0 0.0 0.00 0.00 0.00 88 850.7
20260507014614 34 315 0.0 0.0 0.00 0.00 0.00 88 850.8
20260507014114 34 180 0.0 0.0 0.00 0.00 0.00 89 850.8
20260507013614 34 292 0.0 0.0 0.00 0.00 0.00 89 850.8
20260507013114 34 292 0.0 0.0 0.00 0.00 0.00 89 850.8
20260507012614 34 270 0.0 0.0 0.00 0.00 0.00 88 850.7
20260507012114 35 0 0.0 0.0 0.00 0.00 0.00 88 851.0
20260507011614 35 45 0.0 0.0 0.00 0.00 0.00 88 851.0
20260507011114 35 157 0.0 3.5 0.00 0.00 0.00 87 851.0
20260507010614 35 180 0.0 1.7 0.00 0.00 0.00 87 851.0
20260507010114 35 22 0.0 4.3 0.00 0.00 0.00 86 850.8
20260507005614 36 45 0.0 4.3 0.00 0.00 0.00 86 850.9
20260507005114 36 337 1.7 3.5 0.00 0.00 0.00 85 850.8
20260507004614 36 270 0.0 5.2 0.00 0.00 0.00 85 851.0
20260507004114 36 180 5.2 5.2 0.00 0.00 0.00 85 850.9
20260507003614 36 180 3.5 7.0 0.00 0.00 0.00 85 850.9
20260507003114 36 0 0.0 5.2 0.00 0.00 0.00 85 850.9
20260507002614 36 315 0.0 5.2 0.00 0.00 0.00 84 851.0
20260507002114 36 112 0.0 5.2 0.00 0.00 0.00 85 850.9
20260507001614 36 337 0.0 3.5 0.00 0.00 0.00 85 851.1
20260507001114 36 0 3.5 4.3 0.00 0.00 0.00 85 851.0
20260507000614 36 247 0.0 3.5 0.00 0.00 0.00 86 851.0
20260507000114 36 337 0.0 5.2 0.00 0.00 0.00 89 851.0
20260506235614 36 0 0.9 4.3 0.00 0.00 0.00 89 851.1
20260506235114 36 337 0.0 6.1 0.00 0.00 0.00 90 851.2
20260506234614 36 202 0.9 4.3 0.00 0.00 0.00 90 851.2
20260506234114 36 337 0.0 2.6 0.00 0.00 0.00 90 851.2
20260506233614 36 45 0.0 0.0 0.00 0.00 0.00 91 851.1
20260506233114 36 0 0.0 0.9 0.00 0.00 0.00 91 851.1
20260506232614 36 0 0.0 0.9 0.00 0.00 0.00 91 851.0
20260506232114 36 202 0.0 4.3 0.00 0.00 0.00 91 851.1
20260506231614 36 292 0.0 5.2 0.00 0.00 0.00 91 851.1
20260506231114 36 337 0.0 5.2 0.00 0.00 0.00 91 851.3
20260506230614 36 225 2.6 2.6 0.00 0.00 0.00 91 851.2
20260506230114 36 135 0.0 7.0 0.00 0.00 0.00 91 851.2
20260506225615 37 157 0.0 7.8 0.00 0.00 0.00 91 851.1
20260506225114 37 135 0.0 5.2 0.00 0.00 0.00 93 851.2
20260506224615 37 180 4.3 8.7 0.00 0.00 0.00 94 851.3
20260506224115 37 180 0.9 6.1 0.00 0.00 0.00 94 851.1
20260506223615 37 202 0.0 8.7 0.00 0.00 0.00 94 851.3
20260506223115 37 180 8.7 8.7 0.00 0.00 0.00 94 851.2
20260506222615 37 337 0.0 6.1 0.00 0.00 0.00 95 851.2
20260506222115 37 202 0.0 5.2 0.00 0.00 0.00 95 851.1
20260506221615 37 337 0.0 0.0 0.00 0.00 0.00 95 851.1
20260506221115 37 315 0.9 5.2 0.00 0.00 0.00 94 851.2
20260506220615 37 180 1.7 5.2 0.00 0.00 0.00 94 851.2
20260506220115 37 292 0.0 9.6 0.00 0.00 0.00 94 851.2
20260506215615 37 292 0.0 0.0 0.00 0.00 0.00 94 851.3
20260506215115 37 112 4.3 6.1 0.00 0.00 0.00 94 851.2
20260506214615 37 45 0.9 7.0 0.00 0.00 0.00 94 851.1
20260506214115 37 0 0.0 6.1 0.00 0.00 0.00 94 851.1
20260506213615 37 315 0.0 8.7 0.00 0.00 0.00 94 851.3
20260506213115 37 180 6.1 6.1 0.00 0.00 0.00 94 851.3
20260506212615 38 180 0.0 5.2 0.00 0.00 0.00 94 851.4
20260506212115 38 337 0.0 0.0 0.00 0.00 0.00 94 851.4
20260506211615 38 315 0.0 3.5 0.00 0.00 0.00 94 851.4
20260506211115 38 157 0.0 4.3 0.00 0.00 0.00 94 851.4
20260506210615 38 337 0.0 2.6 0.00 0.00 0.00 94 851.3
20260506210115 38 135 0.0 0.0 0.00 0.00 0.00 94 851.4
20260506205615 38 337 0.0 3.5 0.00 0.00 0.00 94 851.4
20260506205115 38 202 0.0 2.6 0.00 0.00 0.00 94 851.4
20260506204615 38 180 0.0 3.5 0.00 0.00 0.00 94 851.4
20260506204115 38 315 0.0 0.0 0.00 0.00 0.00 94 851.3
20260506203615 38 247 0.0 0.0 0.00 0.00 0.00 94 851.3
20260506203115 38 315 0.0 6.1 0.00 0.00 0.00 94 851.1
20260506202615 38 315 0.0 0.9 0.00 0.00 0.00 94 851.1
20260506202115 38 337 0.0 2.6 0.00 0.00 0.00 94 851.1
20260506201615 38 247 0.0 5.2 0.00 0.00 0.00 94 851.3
20260506201115 38 180 0.0 0.9 0.00 0.00 0.00 94 851.2
20260506200615 38 180 0.0 0.0 0.00 0.00 0.00 94 851.0
20260506200115 38 337 0.0 3.5 0.00 0.00 0.00 94 851.0
20260506195615 38 45 0.0 3.5 0.00 0.00 0.00 94 851.0
20260506195115 38 0 0.0 5.2 0.00 0.00 0.00 94 851.0
20260506194615 38 135 0.0 7.0 0.00 0.00 0.00 94 850.9
20260506194115 38 202 2.6 3.5 0.00 0.00 0.00 94 850.7
20260506193615 38 22 0.0 5.2 0.00 0.00 0.00 94 850.8
20260506193115 38 202 2.6 3.5 0.00 0.00 0.00 94 850.8
20260506192615 38 180 0.0 4.3 0.00 0.00 0.00 93 850.9
20260506192115 38 67 0.0 7.8 0.00 0.00 0.00 93 850.9
20260506191615 38 0 3.5 7.0 0.00 0.00 0.00 93 850.7
20260506191115 38 67 1.7 10.4 0.00 0.00 0.00 93 850.6
20260506190615 38 180 1.7 6.1 0.00 0.00 0.00 93 850.5
20260506190115 38 157 0.9 7.8 0.00 0.00 0.00 93 850.6
20260506185615 38 315 0.0 0.9 0.00 0.00 0.00 93 850.6
20260506185115 38 270 0.0 0.0 0.00 0.00 0.00 93 850.7
20260506184615 38 0 0.0 0.0 0.00 0.00 0.00 93 850.8
20260506184115 39 337 0.0 0.9 0.00 0.00 0.00 94 850.6
20260506183615 39 135 0.0 0.9 0.00 0.00 0.00 93 850.6
20260506183115 39 315 0.0 0.0 0.00 0.00 0.00 93 850.7
20260506182615 39 292 0.0 0.0 0.00 0.00 0.00 93 850.7
20260506182115 39 180 0.0 0.0 0.00 0.00 0.00 93 850.6
20260506181615 39 180 0.0 1.7 0.00 0.00 0.00 93 850.6
20260506181115 39 180 0.0 0.9 0.00 0.00 0.00 93 850.7
20260506180615 39 337 0.0 1.7 0.00 0.00 0.00 93 850.6
20260506180115 39 112 1.7 4.3 0.00 0.00 0.00 93 850.5
20260506175615 39 202 0.0 0.9 0.00 0.00 0.00 93 850.6
20260506175115 39 270 0.0 6.1 0.00 0.00 0.00 93 850.5
20260506174615 40 22 1.7 4.3 0.00 0.00 0.00 93 850.5
20260506174115 40 157 0.0 4.3 0.00 0.00 0.00 93 850.6
20260506173615 40 337 0.0 4.3 0.00 0.00 0.00 93 850.4
20260506173115 40 180 5.2 5.2 0.00 0.00 0.00 92 850.4
20260506172615 40 67 0.0 3.5 0.00 0.00 0.00 92 850.4
20260506172115 40 225 0.0 4.3 0.00 0.00 0.00 91 850.2
20260506171615 40 180 1.7 1.7 0.00 0.00 0.00 91 850.3
20260506171115 40 180 0.0 0.0 0.00 0.00 0.00 90 850.3
20260506170615 41 157 0.0 1.7 0.00 0.00 0.00 90 850.2
20260506170115 40 180 0.0 0.0 0.00 0.00 0.00 90 850.1
20260506165615 40 337 0.0 8.7 0.00 0.00 0.00 90 850.0
20260506165115 40 112 0.0 5.2 0.00 0.00 0.00 90 850.1
20260506164615 40 180 5.2 6.1 0.00 0.00 0.00 90 850.0
20260506164115 41 180 0.0 1.7 0.00 0.00 0.00 90 850.0
20260506163615 41 180 0.0 1.7 0.00 0.00 0.00 90 849.9
20260506163115 41 22 0.0 0.0 0.00 0.00 0.00 91 849.9
20260506162615 41 315 0.0 6.1 0.00 0.00 0.00 91 849.9
20260506162115 41 180 2.6 4.3 0.00 0.00 0.00 92 850.0
20260506161615 41 337 0.0 3.5 0.00 0.00 0.00 92 850.0
20260506161115 41 180 0.0 0.9 0.00 0.00 0.00 92 850.1
20260506160615 41 180 0.9 0.9 0.00 0.00 0.00 93 850.1
20260506160115 41 180 0.0 1.7 0.00 0.00 0.00 93 850.0
20260506155615 41 202 0.0 2.6 0.00 0.00 0.00 92 850.1
20260506155115 41 337 0.0 4.3 0.00 0.00 0.00 92 850.2
20260506154615 42 180 1.7 3.5 0.00 0.00 0.00 92 850.1
20260506154115 42 180 0.0 0.9 0.00 0.00 0.00 91 850.1
20260506153615 42 180 0.9 2.6 0.00 0.00 0.00 91 850.1
20260506153115 43 180 0.0 3.5 0.00 0.00 0.00 91 850.2
20260506152615 43 180 1.7 3.5 0.00 0.00 0.00 90 850.1
20260506152115 43 180 0.0 0.0 0.00 0.00 0.00 91 849.9
20260506151615 43 135 0.0 0.0 0.00 0.00 0.00 91 849.9
20260506151115 43 270 0.0 1.7 0.00 0.00 0.00 92 849.8
20260506150615 43 202 0.0 0.0 0.00 0.00 0.00 92 850.1
20260506150115 43 315 0.0 0.0 0.00 0.00 0.00 92 849.9
20260506145615 43 337 0.0 4.3 0.00 0.00 0.00 93 849.9
20260506145115 43 247 0.0 0.0 0.00 0.00 0.00 93 849.9
20260506144615 43 135 0.0 0.9 0.00 0.00 0.00 93 849.9
20260506144115 43 135 0.0 3.5 0.00 0.00 0.00 94 849.8
20260506143615 43 202 0.0 7.0 0.00 0.00 0.00 94 849.9
20260506143115 42 180 2.6 2.6 0.00 0.00 0.00 94 849.8
20260506142615 42 0 0.0 7.0 0.00 0.00 0.00 95 849.8
20260506142115 41 202 0.0 0.0 0.00 0.00 0.00 95 849.9
20260506141615 41 315 0.0 0.0 0.00 0.00 0.00 95 849.9
20260506141115 39 315 0.0 0.0 0.00 0.00 0.00 95 849.8
20260506140615 38 315 0.0 2.6 0.00 0.00 0.00 95 849.7
20260506140115 38 292 0.0 3.5 0.00 0.00 0.00 95 850.0
20260506135615 38 292 0.0 0.9 0.00 0.00 0.00 95 849.9
20260506135115 39 315 0.0 0.0 0.00 0.00 0.00 95 849.8
20260506134615 39 315 0.0 0.0 0.00 0.00 0.00 95 849.9
20260506134115 39 292 0.0 0.0 0.00 0.00 0.00 95 849.9
20260506133615 39 337 0.0 0.0 0.00 0.00 0.00 95 850.0
20260506133115 40 315 0.0 0.0 0.00 0.00 0.00 95 850.0
20260506132615 41 180 0.0 0.0 0.00 0.00 0.00 95 850.2
20260506132115 41 180 0.0 0.0 0.00 0.00 0.00 95 850.4
20260506131615 41 180 0.0 4.3 0.00 0.00 0.00 95 850.4
20260506131115 41 292 0.0 7.0 0.00 0.00 0.00 95 850.4
20260506130615 41 225 0.0 7.0 0.00 0.00 0.00 95 850.5
20260506130115 41 180 0.0 5.2 0.00 0.00 0.00 95 850.4
20260506125615 41 180 0.0 5.2 0.00 0.00 0.00 95 850.4
20260506125115 41 180 0.0 2.6 0.00 0.00 0.00 95 850.4
20260506124615 41 180 0.0 3.5 0.00 0.00 0.00 95 850.6
20260506124115 41 180 2.6 8.7 0.00 0.00 0.00 95 850.4
20260506123615 41 180 0.9 7.8 0.00 0.00 0.00 95 850.0
20260506123115 41 157 2.6 9.6 0.00 0.00 0.00 95 849.9
20260506122615 41 180 8.7 9.6 0.00 0.00 0.00 95 849.8
20260506122115 41 225 6.1 9.6 0.00 0.00 0.00 95 849.8
20260506121616 41 180 3.5 7.0 0.00 0.00 0.00 95 849.8
20260506121116 41 180 6.1 9.6 0.00 0.00 0.00 95 850.1
20260506120616 41 202 0.0 10.4 0.00 0.00 0.00 95 849.9
20260506120116 41 180 0.0 7.8 0.00 0.00 0.00 95 850.0
20260506115616 41 180 0.0 7.0 0.00 0.00 0.00 95 849.8
20260506115116 41 180 6.1 10.4 0.00 0.00 0.00 95 849.7
20260506114616 41 180 0.0 8.7 0.00 0.00 0.00 95 849.7
20260506114116 41 180 4.3 5.2 0.00 0.00 0.00 95 849.8
20260506113616 41 180 4.3 8.7 0.00 0.00 0.00 95 849.8
20260506113116 41 180 2.6 6.1 0.00 0.00 0.00 95 849.9
20260506112616 41 180 1.7 8.7 0.00 0.00 0.00 95 849.9
20260506112116 41 180 2.6 8.7 0.00 0.00 0.00 95 850.0
20260506111616 41 157 2.6 5.2 0.00 0.00 0.00 95 850.1
20260506111116 41 180 0.0 6.1 0.00 0.00 0.00 95 850.2
20260506110616 41 180 3.5 5.2 0.00 0.00 0.00 95 850.2
20260506110116 41 180 4.3 5.2 0.00 0.00 0.00 95 850.2
20260506105616 41 202 3.5 6.1 0.00 0.00 0.00 95 850.3
20260506105116 40 180 4.3 5.2 0.00 0.00 0.00 95 850.4
20260506104616 40 180 2.6 5.2 0.00 0.00 0.00 95 850.4
20260506104116 40 180 1.7 7.0 0.00 0.00 0.00 95 850.5
20260506103616 40 180 6.1 6.1 0.00 0.00 0.00 95 850.5
20260506103116 40 180 3.5 5.2 0.00 0.00 0.00 95 850.3
20260506102616 40 180 3.5 7.0 0.00 0.00 0.00 95 850.5
20260506102116 40 180 3.5 6.1 0.00 0.00 0.00 95 850.4
20260506101616 40 180 3.5 6.1 0.00 0.00 0.00 95 850.5
20260506101116 40 180 2.6 7.0 0.00 0.00 0.00 95 850.4
20260506100616 39 180 2.6 6.1 0.00 0.00 0.00 95 850.4
20260506100116 39 180 2.6 7.0 0.00 0.00 0.00 95 850.4
20260506095616 39 180 3.5 8.7 0.00 0.00 0.00 95 850.5
20260506095116 39 180 1.7 5.2 0.00 0.00 0.00 95 850.6
20260506094616 39 180 0.0 5.2 0.00 0.00 0.00 95 850.5
20260506094116 38 180 5.2 5.2 0.00 0.00 0.00 95 850.4
20260506093616 38 180 0.9 6.1 0.00 0.00 0.00 95 850.4
20260506093116 39 180 0.9 6.1 0.00 0.00 0.00 95 850.3
20260506092616 39 202 2.6 4.3 0.00 0.00 0.00 95 850.4
20260506092116 39 180 3.5 5.2 0.00 0.00 0.00 95 850.5
20260506091616 39 180 4.3 5.2 0.00 0.00 0.00 95 850.4
20260506091116 38 180 2.6 5.2 0.00 0.00 0.00 95 850.4
20260506090616 38 157 1.7 1.7 0.00 0.00 0.00 95 850.6
20260506090116 38 112 0.0 4.3 0.00 0.00 0.00 95 850.3
20260506085616 38 157 0.0 5.2 0.00 0.00 0.00 95 850.3
20260506085116 39 180 0.9 3.5 0.00 0.00 0.00 95 850.3
20260506084616 38 337 0.0 6.1 0.00 0.00 0.00 95 850.4
20260506084116 38 180 0.9 5.2 0.00 0.00 0.00 95 850.3
20260506083616 38 180 0.0 6.1 0.00 0.00 0.00 95 850.3
20260506083116 38 157 0.9 5.2 0.00 0.00 0.00 95 850.3
20260506082616 38 180 2.6 4.3 0.00 0.00 0.00 95 850.4